FW4027 Ios Boat Parking GR current weather conditions

sailwx.info

Wind at 14 knots gusting 18

Air temperature 27.2° C
Dewpoint 14.6° C

Last reported at 2020-Aug-12 18:00 UTC.
Time now 2020-Aug-12 18:29 UTC

Location: N 36°44' E 025°17'.
View on Google Maps.

See reports from other nearby stations

  
Tides and Currents Weather Stations Pressure Air Temp Water Temp Dewpoint Dewpoint Depression Visibility Wind Speed Wind Dir Waves Ship Positions
date/time (UTC)wind fromknots sea level pressurealtimeterstation pressurevisibilityair tempwater tempwave heightnotes
2020-Aug-12 18:00 27.2
2020-Aug-12 17:55 26.7
2020-Aug-12 17:50 343 13 gusting 19 26.7
2020-Aug-12 17:45 350 13 gusting 19 26.7
2020-Aug-12 17:40 26.7
2020-Aug-12 17:35 27.2
2020-Aug-12 17:30 350 16 gusting 24 27.2
2020-Aug-12 17:25 011 19 gusting 25 27.2
2020-Aug-12 17:20 27.2
2020-Aug-12 17:15 003 18 gusting 22 27.2
2020-Aug-12 17:10 27.2
2020-Aug-12 17:05 006 11 gusting 18 27.2
2020-Aug-12 17:00 27.2
2020-Aug-12 16:55 27.2
2020-Aug-12 16:50 011 11 gusting 16 27.8
2020-Aug-12 16:45 354 11 gusting 16 27.8
2020-Aug-12 16:40 014 9 gusting 15 27.8
2020-Aug-12 16:35 27.8
2020-Aug-12 16:30 353 13 gusting 19 27.8
2020-Aug-12 16:25 27.8
2020-Aug-12 16:20 27.8
2020-Aug-12 16:15 024 13 gusting 17 28.3
2020-Aug-12 16:10 014 13 gusting 17 28.3
2020-Aug-12 16:05 28.3
2020-Aug-12 16:00 007 13 gusting 19 28.3
2020-Aug-12 15:55 004 15 gusting 19 28.9
2020-Aug-12 15:50 358 12 gusting 17 28.9
2020-Aug-12 15:45 29.4
2020-Aug-12 15:40 29.4
2020-Aug-12 15:35 29.4
2020-Aug-12 15:30 021 14 gusting 26 29.4
2020-Aug-12 15:25 014 15 gusting 26 29.4
2020-Aug-12 15:20 29.4
2020-Aug-12 15:15 006 19 gusting 25 29.4
2020-Aug-12 15:10 354 18 gusting 24 29.4
2020-Aug-12 15:05 29.4
2020-Aug-12 15:00 354 19 gusting 26 28.9
2020-Aug-12 14:55 28.9
2020-Aug-12 14:50 29.4
2020-Aug-12 14:45 28.9
2020-Aug-12 14:40 006 15 gusting 22 28.9
2020-Aug-12 14:35 035 16 gusting 26 29.4
2020-Aug-12 14:30 351 20 gusting 26 29.4
2020-Aug-12 14:25 348 17 gusting 24 29.4
2020-Aug-12 14:20 29.4
2020-Aug-12 14:15 29.4
2020-Aug-12 14:10 29.4
2020-Aug-12 14:05 29.4
2020-Aug-12 14:00 357 19 gusting 27 29.4
2020-Aug-12 13:55 340 21 gusting 27 29.4
2020-Aug-12 13:50 29.4
2020-Aug-12 13:45 347 17 gusting 26 29.4
2020-Aug-12 13:40 29.4
2020-Aug-12 13:35 29.4
2020-Aug-12 13:30 29.4
2020-Aug-12 13:25 345 19 gusting 29 28.9
2020-Aug-12 13:20 357 23 gusting 30 28.9
2020-Aug-12 13:15 28.9
2020-Aug-12 13:10 351 20 gusting 28 28.9
2020-Aug-12 13:05 28.9
2020-Aug-12 13:00 28.9
2020-Aug-12 12:55 333 23 gusting 28 28.9
2020-Aug-12 12:50 28.9
2020-Aug-12 12:45 28.9
2020-Aug-12 12:40 350 21 gusting 27 28.9
2020-Aug-12 12:35 329 19 gusting 32 28.9
2020-Aug-12 12:30 28.9
2020-Aug-12 12:25 350 24 gusting 27 28.9
2020-Aug-12 12:20 006 20 gusting 26 29.4
2020-Aug-12 12:15 29.4
2020-Aug-12 12:10 29.4
2020-Aug-12 12:05 28.9
2020-Aug-12 12:00 28.9
2020-Aug-12 11:55 333 24 gusting 29 28.9
2020-Aug-12 11:50 28.9
2020-Aug-12 11:45 348 22 gusting 30 28.9
2020-Aug-12 11:40 353 23 gusting 29 28.9
2020-Aug-12 11:35 004 21 gusting 31 28.9
2020-Aug-12 11:30 343 23 gusting 31 28.9
2020-Aug-12 11:25 348 19 gusting 28 28.9
2020-Aug-12 11:20 28.9
2020-Aug-12 11:15 347 21 gusting 30 28.9
2020-Aug-12 11:09 008 21 gusting 26 28.9
2020-Aug-12 11:04 021 19 gusting 26 28.9
2020-Aug-12 10:59 29.4
2020-Aug-12 10:54 29.4
2020-Aug-12 10:49 29.4
2020-Aug-12 10:44 001 15 gusting 25 29.4
2020-Aug-12 10:39 29.4
2020-Aug-12 10:34 345 15 gusting 23 29.4
2020-Aug-12 10:29 29.4
2020-Aug-12 10:24 326 14 gusting 22 29.4
2020-Aug-12 10:19 001 16 gusting 26 29.4
2020-Aug-12 10:14 333 19 gusting 26 29.4
2020-Aug-12 10:09 30.0
2020-Aug-12 10:04 29.4
2020-Aug-12 09:59 29.4
2020-Aug-12 09:54 29.4
2020-Aug-12 09:49 006 13 gusting 20 29.4
2020-Aug-12 09:44 358 13 gusting 20 28.9
2020-Aug-12 09:39
2020-Aug-12 09:32 344 19 gusting 23 28.9
2020-Aug-12 09:27 344 19 gusting 25 28.9
2020-Aug-12 09:22 344 19 gusting 26 28.9
2020-Aug-12 09:17 28.3
2020-Aug-12 09:12 027 19 gusting 25 28.3
2020-Aug-12 09:07 341 19 gusting 25 28.3
2020-Aug-12 09:02 28.3
2020-Aug-12 08:57 28.3
2020-Aug-12 08:52 357 19 gusting 25 28.3
2020-Aug-12 08:47 343 18 gusting 25 28.3
2020-Aug-12 08:42 28.3
2020-Aug-12 08:37 355 19 gusting 26 28.3
2020-Aug-12 08:32 353 17 gusting 26 28.3
2020-Aug-12 08:27 351 21 gusting 26 28.3
2020-Aug-12 08:22 28.3
2020-Aug-12 08:17 28.3
2020-Aug-12 08:12 28.3
2020-Aug-12 08:07 28.3
2020-Aug-12 08:02 357 18 gusting 23 28.3
2020-Aug-12 07:57 011 13 gusting 23 28.3
2020-Aug-12 07:52 354 18 gusting 23 28.3
2020-Aug-12 07:47 348 19 gusting 23 28.3
2020-Aug-12 07:42 001 13 gusting 23 27.8
2020-Aug-12 07:37 008 14 gusting 20 27.8
2020-Aug-12 07:32 354 15 gusting 22 28.3
2020-Aug-12 07:27 004 17 gusting 22 27.8
2020-Aug-12 07:22 353 15 gusting 19 28.3
2020-Aug-12 07:16 350 13 gusting 19 27.8
2020-Aug-12 07:11 354 13 gusting 23 27.8
2020-Aug-12 07:06 344 18 gusting 23 27.8
2020-Aug-12 07:01 27.8
2020-Aug-12 06:56 27.8
2020-Aug-12 06:51 27.8
2020-Aug-12 06:46 357 15 gusting 19 27.2
2020-Aug-12 06:41 353 9 gusting 19 27.2
2020-Aug-12 06:36 351 13 gusting 19 27.2
2020-Aug-12 06:31 027 13 gusting 19 27.2
2020-Aug-12 06:26 017 16 gusting 19 27.2
2020-Aug-12 06:21 021 10 gusting 17 27.2
2020-Aug-12 06:16 010 12 gusting 15 27.2
2020-Aug-12 06:11 014 13 gusting 19 26.7
2020-Aug-12 06:06 26.7
2020-Aug-12 06:01 26.7
2020-Aug-12 05:56 340 8 gusting 13 26.7
2020-Aug-12 05:51 358 8 gusting 13 26.7
2020-Aug-12 05:46 331 6 gusting 15 26.7
2020-Aug-12 05:41 26.7
2020-Aug-12 05:36 358 7 gusting 13 26.7
2020-Aug-12 05:31 316 12 gusting 15 26.7
2020-Aug-12 05:26 347 11 gusting 15 26.7
2020-Aug-12 05:21 355 10 gusting 13 26.7
2020-Aug-12 05:16 354 11 gusting 14 26.1
2020-Aug-12 05:11 358 12 gusting 15 26.1
2020-Aug-12 05:06 26.1
2020-Aug-12 05:01 353 11 gusting 15 26.1
2020-Aug-12 04:56 26.1
2020-Aug-12 04:51 25.6
2020-Aug-12 04:46 354 11 gusting 17 25.6
2020-Aug-12 04:41 25.6
2020-Aug-12 04:36 25.6
2020-Aug-12 04:31 347 13 gusting 18 25.0
2020-Aug-12 04:26 350 12 gusting 16 25.0
2020-Aug-12 04:21 351 11 gusting 16 25.0
2020-Aug-12 04:16 353 11 gusting 16 25.0
2020-Aug-12 04:11 354 11 gusting 13 24.4
2020-Aug-12 04:06 353 10 gusting 13 24.4
2020-Aug-12 04:01 24.4
2020-Aug-12 03:56 24.4
2020-Aug-12 03:51 358 10 gusting 13 24.4
2020-Aug-12 03:46 350 10 gusting 14 24.4
2020-Aug-12 03:41 24.4
2020-Aug-12 03:36 343 9 gusting 13 25.0
2020-Aug-12 03:31 25.0
2020-Aug-12 03:26 25.0
2020-Aug-12 03:21 354 13 gusting 16 25.0
2020-Aug-12 03:16 25.0
2020-Aug-12 03:11 011 13 gusting 17 25.0
2020-Aug-12 03:06 25.0
2020-Aug-12 03:01 347 10 gusting 15 25.0
2020-Aug-12 02:56 25.0
2020-Aug-12 02:51 25.0
2020-Aug-12 02:46 011 9 gusting 13 25.0
2020-Aug-12 02:41 038 10 gusting 13 25.0
2020-Aug-12 02:36 007 10 gusting 13 25.0
2020-Aug-12 02:31 017 10 gusting 13 25.0
2020-Aug-12 02:26 001 9 gusting 13 25.0
2020-Aug-12 02:21 007 9 gusting 14 25.0
2020-Aug-12 02:16 013 9 gusting 14 25.0
2020-Aug-12 02:11 25.0
2020-Aug-12 02:06 25.0
2020-Aug-12 02:01 25.0
2020-Aug-12 01:56 25.0
2020-Aug-12 01:51 003 9 gusting 13 25.0
2020-Aug-12 01:46 25.0
2020-Aug-12 01:41 25.0
2020-Aug-12 01:36 25.0
2020-Aug-12 01:31 25.0
2020-Aug-12 01:26 25.0
2020-Aug-12 01:21 004 11 gusting 15 25.0
2020-Aug-12 01:16 25.0
2020-Aug-12 01:11 25.0
2020-Aug-12 01:06 004 9 gusting 13 25.0
2020-Aug-12 01:01 006 10 gusting 14 25.0
2020-Aug-12 00:56 006 13 gusting 14 25.6
2020-Aug-12 00:51 25.6
2020-Aug-12 00:46 006 11 gusting 15 25.6
2020-Aug-12 00:41 25.6
2020-Aug-12 00:36 343 14 gusting 17 25.6
2020-Aug-12 00:31 25.6
2020-Aug-12 00:26 25.6
2020-Aug-12 00:21 018 12 gusting 15 25.6
2020-Aug-12 00:16 25.6
2020-Aug-12 00:11 25.6
2020-Aug-12 00:06 049 8 gusting 13 25.6
2020-Aug-12 00:01 25.6
2020-Aug-11 23:56 25.6
2020-Aug-11 23:51 016 11 gusting 16 25.6
2020-Aug-11 23:46 354 7 gusting 12 25.6
2020-Aug-11 23:41 25.6
2020-Aug-11 23:36 355 9 gusting 13 25.6
2020-Aug-11 23:31 26.1
2020-Aug-11 23:26 004 9 gusting 13 25.6
2020-Aug-11 23:21 25.6
2020-Aug-11 23:16 26.1
2020-Aug-11 23:11 25.6
2020-Aug-11 23:06 25.6
2020-Aug-11 23:01 25.6
2020-Aug-11 22:56 25.6
2020-Aug-11 22:51 25.6
2020-Aug-11 22:46 25.6
2020-Aug-11 22:41 25.6
2020-Aug-11 22:36 006 11 gusting 15 26.1
2020-Aug-11 22:31 017 9 gusting 15 26.1
2020-Aug-11 22:26 26.1
2020-Aug-11 22:21 010 12 gusting 16 26.1
2020-Aug-11 22:16 26.1
2020-Aug-11 22:11 354 13 gusting 16 26.1
2020-Aug-11 22:06 26.1
2020-Aug-11 22:01 004 13 gusting 15 26.1
2020-Aug-11 21:56 26.1
2020-Aug-11 21:51 26.1
2020-Aug-11 21:46 26.1
2020-Aug-11 21:41 26.1
2020-Aug-11 21:36 26.1
2020-Aug-11 21:31 010 6 gusting 10 26.1
2020-Aug-11 21:26 013 7 gusting 11 26.1
2020-Aug-11 21:21 26.1
2020-Aug-11 21:16 347 8 gusting 12 26.1
2020-Aug-11 21:11 344 8 gusting 13 26.1
2020-Aug-11 21:06 26.1
2020-Aug-11 21:01 350 9 gusting 13 26.1
2020-Aug-11 20:56 357 10 gusting 14 26.1
2020-Aug-11 20:51 008 9 gusting 14 26.1
2020-Aug-11 20:46 355 9 gusting 13 26.1
2020-Aug-11 20:41 343 7 gusting 12 26.1
2020-Aug-11 20:36 358 9 gusting 13 26.1
2020-Aug-11 20:31 26.1
2020-Aug-11 20:26 003 10 gusting 14 26.1
2020-Aug-11 20:21 26.1
2020-Aug-11 20:16 26.1
2020-Aug-11 20:11 26.1
2020-Aug-11 20:06 26.1
2020-Aug-11 20:01 26.1
2020-Aug-11 19:56 26.1
2020-Aug-11 19:51 006 11 gusting 15 26.7
2020-Aug-11 19:46 354 10 gusting 17 26.7
2020-Aug-11 19:41 26.7
2020-Aug-11 19:36 351 13 gusting 17 26.7
2020-Aug-11 19:31 26.7
2020-Aug-11 19:26 26.7
2020-Aug-11 19:21 010 12 gusting 17 26.7
2020-Aug-11 19:16 351 14 gusting 17 26.7
2020-Aug-11 19:11 351 13 gusting 17 26.7
2020-Aug-11 19:06 26.7
2020-Aug-11 19:01 336 10 gusting 15 26.7
2020-Aug-11 18:56 26.7
2020-Aug-11 18:51 010 12 gusting 14 26.1
2020-Aug-11 18:46 26.7
2020-Aug-11 18:41 004 10 gusting 15 26.7
2020-Aug-11 18:36 357 13 gusting 15 26.7
2020-Aug-11 18:31 350 10 gusting 15 26.7
2020-Aug-11 18:26 004 11 gusting 17 26.7
2020-Aug-11 18:21 26.7
2020-Aug-11 18:16 26.7
2020-Aug-11 18:11 357 13 gusting 15 26.7
2020-Aug-11 18:06 26.7
2020-Aug-11 18:01 018 11 gusting 19 26.7
2020-Aug-11 17:56 353 13 gusting 19 26.7
2020-Aug-11 17:51 018 12 gusting 18 26.7
2020-Aug-11 17:46 26.7
2020-Aug-11 17:41 26.7
2020-Aug-11 17:36 355 15 gusting 18 26.7
2020-Aug-11 17:31 26.7
2020-Aug-11 17:26 26.7
2020-Aug-11 17:21 26.7
2020-Aug-11 17:16 26.7
2020-Aug-11 17:11 26.7
2020-Aug-11 17:06 354 12 gusting 15 26.7
2020-Aug-11 17:01 26.7
2020-Aug-11 16:56 010 11 gusting 16 26.7
2020-Aug-11 16:51 011 13 gusting 18 26.7
2020-Aug-11 16:46 351 13 gusting 18 26.7
2020-Aug-11 16:41 26.7
2020-Aug-11 16:36 004 13 gusting 18 26.7
2020-Aug-11 16:31 017 11 gusting 16 27.2
2020-Aug-11 16:26 27.2
2020-Aug-11 16:21 27.2
2020-Aug-11 16:16 017 13 gusting 19 27.2
2020-Aug-11 16:11 008 15 gusting 19 27.2
2020-Aug-11 16:06 010 14 gusting 23 27.2
2020-Aug-11 16:01 003 13 gusting 23 27.8
2020-Aug-11 15:56 27.8
2020-Aug-11 15:51 003 15 gusting 18 27.8
2020-Aug-11 15:46 28.3
2020-Aug-11 15:41 017 15 gusting 20 28.3
2020-Aug-11 15:36 011 12 gusting 20 28.3
2020-Aug-11 15:31 28.3
2020-Aug-11 15:26 28.3
2020-Aug-11 15:21 358 16 gusting 20 28.3
2020-Aug-11 15:16 28.3
2020-Aug-11 15:11 010 15 gusting 19 28.3
2020-Aug-11 15:06 28.3
2020-Aug-11 15:01 343 15 gusting 19 28.3
2020-Aug-11 14:56 28.3
2020-Aug-11 14:51 348 17 gusting 23 28.3
2020-Aug-11 14:46 28.3
2020-Aug-11 14:41 28.3
2020-Aug-11 14:36 006 15 gusting 22 28.9
2020-Aug-11 14:31 351 18 gusting 22 28.9
2020-Aug-11 14:26 011 16 gusting 20 28.9
2020-Aug-11 14:21 003 16 gusting 20 28.9
2020-Aug-11 14:16 348 15 gusting 23 28.3
2020-Aug-11 14:11 28.3
2020-Aug-11 14:06 28.3
2020-Aug-11 14:01 28.3
2020-Aug-11 13:56 28.3
2020-Aug-11 13:51 338 17 gusting 22 28.3
2020-Aug-11 13:46 001 16 gusting 23 28.3
2020-Aug-11 13:41 28.3
2020-Aug-11 13:36 28.3
2020-Aug-11 13:31 28.9
2020-Aug-11 13:26 28.9
2020-Aug-11 13:21 354 13 gusting 26 28.9
2020-Aug-11 13:16 28.9
2020-Aug-11 13:11 357 17 gusting 20 28.9
2020-Aug-11 13:06 023 15 gusting 25 28.9
2020-Aug-11 13:01 344 21 gusting 25 28.9
2020-Aug-11 12:56 28.9
2020-Aug-11 12:51 027 16 gusting 22 28.3
2020-Aug-11 12:46 336 17 gusting 20 28.3
2020-Aug-11 12:41 344 17 gusting 25 28.3
2020-Aug-11 12:36 28.3
2020-Aug-11 12:31 28.3
2020-Aug-11 12:26 344 14 gusting 24 28.3
2020-Aug-11 12:21 021 18 gusting 24 28.3
2020-Aug-11 12:16 004 14 gusting 22 28.3
2020-Aug-11 12:11 008 16 gusting 19 28.3
2020-Aug-11 12:06 28.3
2020-Aug-11 12:01 011 18 gusting 23 28.3
2020-Aug-11 11:56 28.3
2020-Aug-11 11:51 016 14 gusting 25 28.3
2020-Aug-11 11:46 28.9
2020-Aug-11 11:41 28.9
2020-Aug-11 11:36 357 13 gusting 18 28.9
2020-Aug-11 11:31 355 13 gusting 20 28.9
2020-Aug-11 11:26 28.3
2020-Aug-11 11:21 355 14 gusting 20 28.9
2020-Aug-11 11:16 28.9
2020-Aug-11 11:11 023 13 gusting 22 28.9
2020-Aug-11 11:06 345 11 gusting 22 28.3
2020-Aug-11 11:01 28.3
2020-Aug-11 10:56 340 15 gusting 23 28.3
2020-Aug-11 10:51 324 15 gusting 23 28.3
2020-Aug-11 10:46 347 15 gusting 19 27.8
2020-Aug-11 10:41 331 15 gusting 19 27.8
2020-Aug-11 10:37 347 14 gusting 19 28.3
2020-Aug-11 10:31 354 15 gusting 20 28.3
2020-Aug-11 10:26 28.3
2020-Aug-11 10:21 28.3
2020-Aug-11 10:16 330 15 gusting 22 27.8
2020-Aug-11 10:11 27.8
2020-Aug-11 10:06 358 16 gusting 23 28.3
2020-Aug-11 10:01 27.8
2020-Aug-11 09:56 350 14 gusting 24 27.8
2020-Aug-11 09:51 27.8
2020-Aug-11 09:46 27.8
2020-Aug-11 09:41 28.3
2020-Aug-11 09:36 347 13 gusting 22 28.3
2020-Aug-11 09:31 350 15 gusting 22 28.3
2020-Aug-11 09:26 28.3
2020-Aug-11 09:21 004 15 gusting 19 27.8
2020-Aug-11 09:16 27.8
2020-Aug-11 09:11 355 14 gusting 20 27.8
2020-Aug-11 09:06 008 13 gusting 20 27.8
2020-Aug-11 09:01 004 14 gusting 19 27.8
2020-Aug-11 08:56 27.8
2020-Aug-11 08:51 008 13 gusting 20 28.3
2020-Aug-11 08:46 011 13 gusting 18 28.3
2020-Aug-11 08:41 27.8
2020-Aug-11 08:36 357 13 gusting 19 27.8
2020-Aug-11 08:31 27.8
2020-Aug-11 08:26 27.8
2020-Aug-11 08:20 018 13 gusting 17 27.8
2020-Aug-11 08:15 003 13 gusting 18 27.8
2020-Aug-11 08:10 001 13 gusting 24 27.2
2020-Aug-11 08:05 010 14 gusting 24 27.2
2020-Aug-11 08:00 034 12 gusting 20 27.2
2020-Aug-11 07:55 003 13 gusting 19 27.2
2020-Aug-11 07:50 354 13 gusting 19 27.2
2020-Aug-11 07:45 041 14 gusting 19 27.2
2020-Aug-11 07:40 351 14 gusting 22 27.2
2020-Aug-11 07:35 27.2
2020-Aug-11 07:30 27.2
2020-Aug-11 07:25 27.8
2020-Aug-11 07:20 345 14 gusting 25 27.8
2020-Aug-11 07:15 27.2
2020-Aug-11 07:10 27.2
2020-Aug-11 07:05 351 17 gusting 20 27.8
2020-Aug-11 07:00 355 16 gusting 23 27.8
2020-Aug-11 06:50 020 15 gusting 19 27.2
2020-Aug-11 06:45 030 13 gusting 19 27.2
2020-Aug-11 06:40 003 13 gusting 20 27.2
2020-Aug-11 06:35 016 13 gusting 20 27.2
2020-Aug-11 06:25 27.2
2020-Aug-11 06:20 013 13 gusting 18 27.8
2020-Aug-11 06:15 014 9 gusting 14 27.2
2020-Aug-11 06:10 27.2
2020-Aug-11 06:05 27.2
2020-Aug-11 06:00 27.2
2020-Aug-11 05:55 008 11 gusting 18 26.7
2020-Aug-11 05:50 006 12 gusting 18 26.7
2020-Aug-11 05:45 035 13 gusting 16 26.7
2020-Aug-11 05:40 26.7
2020-Aug-11 05:35 355 12 gusting 17 26.7
2020-Aug-11 05:30 347 13 gusting 15 26.7
2020-Aug-11 05:25 004 10 gusting 15 26.1
2020-Aug-11 05:20 355 10 gusting 16 26.1
2020-Aug-11 05:15 26.1
2020-Aug-11 05:10 001 13 gusting 22 26.1
2020-Aug-11 05:05 035 14 gusting 22 26.1
2020-Aug-11 05:00 26.1
2020-Aug-11 04:55 023 12 gusting 22 25.6
2020-Aug-11 04:50 354 16 gusting 20 25.6
2020-Aug-11 04:45 25.6
2020-Aug-11 04:40 001 14 gusting 19 25.6
2020-Aug-11 04:35 013 10 gusting 12 25.6
2020-Aug-11 04:30 25.6
2020-Aug-11 04:25 25.0
2020-Aug-11 04:20 25.0
2020-Aug-11 04:15 25.0
2020-Aug-11 04:10 25.0
2020-Aug-11 04:05 25.0
2020-Aug-11 04:00 25.0
2020-Aug-11 03:55 007 13 gusting 17 25.0
2020-Aug-11 03:50 010 11 gusting 16 25.0
2020-Aug-11 03:45 25.0
2020-Aug-11 03:40 357 12 gusting 16 25.0
2020-Aug-11 03:35 25.0
2020-Aug-11 03:30 25.0
2020-Aug-11 03:25 25.0
2020-Aug-11 03:20 25.0
2020-Aug-11 03:15 25.0
2020-Aug-11 03:10 25.6
2020-Aug-11 03:05 25.6
2020-Aug-11 03:00 010 10 gusting 15 25.6
2020-Aug-11 02:55 25.6
2020-Aug-11 02:50 25.6
2020-Aug-11 02:45 004 10 gusting 13 25.0
2020-Aug-11 02:40 25.0
2020-Aug-11 02:35 25.0
2020-Aug-11 02:30 354 6 gusting 10 25.0
2020-Aug-11 02:25 358 6 gusting 8 25.0
2020-Aug-11 02:20 25.0
2020-Aug-11 02:15 25.0
2020-Aug-11 02:10 003 8 gusting 11 25.6
2020-Aug-11 02:05 25.6
2020-Aug-11 02:00 25.0
2020-Aug-11 01:55 25.0
2020-Aug-11 01:50 007 8 gusting 13 25.0
2020-Aug-11 01:45 25.0
2020-Aug-11 01:40 006 8 gusting 13 25.0
2020-Aug-11 01:35 016 7 gusting 14 25.0
2020-Aug-11 01:30 023 10 gusting 14 25.6
2020-Aug-11 01:25 004 10 gusting 13 25.6
2020-Aug-11 01:20 001 11 gusting 13 25.6
2020-Aug-11 01:15 25.6
2020-Aug-11 01:10 354 10 gusting 13 25.6
2020-Aug-11 01:05 25.6
2020-Aug-11 01:00 001 10 gusting 13 25.0
2020-Aug-11 00:55 008 9 gusting 12 25.0
2020-Aug-11 00:49 023 7 gusting 12 25.0
2020-Aug-11 00:44 007 9 gusting 13 25.0
2020-Aug-11 00:39 351 8 gusting 13 25.0
2020-Aug-11 00:34 013 6 gusting 10 25.0
2020-Aug-11 00:29 001 6 gusting 13 25.0
2020-Aug-11 00:24 25.0
2020-Aug-11 00:19 25.6
2020-Aug-11 00:14 008 10 gusting 13 25.6
2020-Aug-11 00:09 003 8 gusting 13 25.6
2020-Aug-11 00:04 354 8 gusting 13 25.6
2020-Aug-10 23:59 25.6
2020-Aug-10 23:54 001 10 gusting 16 25.6
2020-Aug-10 23:49 25.6
2020-Aug-10 23:44 25.6
2020-Aug-10 23:39 357 10 gusting 19 25.6
2020-Aug-10 23:34 25.6
2020-Aug-10 23:29 25.6
2020-Aug-10 23:24 351 14 gusting 19 25.6
2020-Aug-10 23:19 351 9 gusting 19 25.6
2020-Aug-10 23:14 347 15 gusting 19 25.6
2020-Aug-10 23:09 25.6
2020-Aug-10 23:04 25.6
2020-Aug-10 22:59 25.6
2020-Aug-10 22:54 345 10 gusting 12 25.6
2020-Aug-10 22:49 354 8 gusting 11 25.6
2020-Aug-10 22:44 25.6
2020-Aug-10 22:39 25.6
2020-Aug-10 22:34 348 11 gusting 16 25.6
2020-Aug-10 22:29 25.6
2020-Aug-10 22:24 001 12 gusting 15 25.6
2020-Aug-10 22:19 25.6
2020-Aug-10 22:14 353 12 gusting 15 25.6
2020-Aug-10 22:09 25.6
2020-Aug-10 22:04 357 6 gusting 10 25.6
2020-Aug-10 21:59 357 6 gusting 10 25.6
2020-Aug-10 21:54 355 7 gusting 10 25.6
2020-Aug-10 21:49 25.6
2020-Aug-10 21:44 26.1
2020-Aug-10 21:39 001 8 gusting 12 26.1
2020-Aug-10 21:34 348 8 gusting 12 26.1
2020-Aug-10 21:29 26.1
2020-Aug-10 21:24 353 7 gusting 13 26.1
2020-Aug-10 21:19 355 6 gusting 13 26.1
2020-Aug-10 21:14 354 8 gusting 13 26.1
2020-Aug-10 21:09 338 10 gusting 12 26.1
2020-Aug-10 21:04 347 6 gusting 14 26.1
2020-Aug-10 20:59 355 9 gusting 14 26.1
2020-Aug-10 20:54 357 7 gusting 11 26.1
2020-Aug-10 20:49 348 7 gusting 12 26.1
2020-Aug-10 20:44 26.1
2020-Aug-10 20:39 353 9 gusting 12 26.1
2020-Aug-10 20:34 26.1
2020-Aug-10 20:29 351 8 gusting 13 26.7
2020-Aug-10 20:24 014 9 gusting 15 26.7
2020-Aug-10 20:19 26.7
2020-Aug-10 20:14 26.7
2020-Aug-10 20:09 26.7
2020-Aug-10 20:04 351 13 gusting 17 26.7
2020-Aug-10 19:59 26.7
2020-Aug-10 19:54 347 13 gusting 17 26.7
2020-Aug-10 19:49 353 11 gusting 13 26.1
2020-Aug-10 19:44 016 11 gusting 13 26.1
2020-Aug-10 19:39 358 7 gusting 13 26.1
2020-Aug-10 19:34 003 7 gusting 12 26.1
2020-Aug-10 19:29 25.6
2020-Aug-10 19:24 338 6 gusting 13 25.6
2020-Aug-10 19:19 345 7 gusting 13 25.6
2020-Aug-10 19:14 337 10 gusting 13 25.6
2020-Aug-10 19:09 350 10 gusting 14 25.6
2020-Aug-10 19:04 344 13 gusting 17 25.6
2020-Aug-10 18:59 25.6
2020-Aug-10 18:54 353 10 gusting 14 25.6
2020-Aug-10 18:49 001 7 gusting 13 25.6
2020-Aug-10 18:44 004 9 gusting 14 25.6
2020-Aug-10 18:39 004 9 gusting 18 25.6
2020-Aug-10 18:34 26.1
2020-Aug-10 18:29 345 13 gusting 18 26.1
2020-Aug-10 18:24 348 12 gusting 16 26.1
2020-Aug-10 18:19 344 13 gusting 16 26.1
2020-Aug-10 18:14 340 10 gusting 18 26.1
2020-Aug-10 18:09 351 13 gusting 18 26.1
2020-Aug-10 18:04 26.1